Regional Weather Roundup
Issued by NWS

Home | Current Version | Previous Version | Graphics & Text | Print | Product List | Glossary On
Versions: 1 2 3 4 5 6 7 8 9 10 11 12 13 14 15 16 17 18 19 20 21 22 23 24 25 26 27 28 29 30 31 32 33 34 35 36 37 38 39 40 41 42 43 44 45 46 47 48 49 50
000
ASUS44 KMEG 180110
RWRTN
TENNESSEE HOURLY STATE WEATHER ROUNDUP
NATIONAL WEATHER SERVICE MEMPHIS TN
700 PM CST WED DEC 17 2014

TNZ002-004-019-021-049-052-054-088>092-180200-
WEST TENNESSEE

CITY           SKY/WX    TMP DP  RH WIND       PRES   REMARKS
MEMPHIS INTL   CLOUDY    40  32  73 N5        30.27R
NWS MEMPHIS      N/A     39 N/A N/A MISG        N/A
JACKSON        MOCLDY    37  31  78 NE3       30.27F
DYERSBURG      MOCLDY    37  21  52 CALM      30.29F
UNION CITY     CLEAR     34  30  86 N3        30.27F
PARIS          CLEAR     28  25  86 CALM      30.27S
HUNTINGDON     MOCLDY    31  27  85 CALM      30.27F
LEXINGTON      CLEAR     36  28  75 N3        30.26S
SAVANNAH       CLEAR     37  32  81 CALM      30.26F
$$

TNZ008-025-027-028-033-062-065-066-180200-
NORTH MIDDLE TENNESSEE

CITY           SKY/WX    TMP DP  RH WIND       PRES   REMARKS
NASHVILLE      MOCLDY    37  29  72 CALM      30.27S
CLARKSVILLE    PTCLDY    35  27  72 N6        30.28R WCI  30
SMYRNA         MOCLDY    31  29  92 CALM      30.29R
COOKEVILLE     CLEAR     32  30  93 CALM      30.23R
CROSSVILLE     MOCLDY    33  28  81 CALM      30.20S
$$

TNZ061-075-076-078-094-096-097-180200-
SOUTH MIDDLE TENNESSEE

CITY           SKY/WX    TMP DP  RH WIND       PRES   REMARKS
FAYETTEVILLE   CLEAR     34  28  80 N10G22    30.23R WCI  26
TULLAHOMA      CLEAR     32  28  86 N5        30.24S WCI  27
WINCHESTER     CLEAR     34  30  86 N3        30.24R
MCMINNVILLE    CLEAR     34  30  86 CALM      30.24R
SHELBYVILLE    CLEAR     36  30  80 CALM      30.26S
$$

TNZ017-018-042-046-047-180200-
NORTHEAST TENNESSEE

CITY           SKY/WX    TMP DP  RH WIND       PRES   REMARKS
TRI CITIES     MOCLDY    37  31  78 CALM      30.18R
ELIZABETHTON   CLEAR     34  30  86 SW3       30.17S
$$

TNZ012-013-036-069-073-074-180200-
CENTRAL EAST TENNESSEE

CITY           SKY/WX    TMP DP  RH WIND       PRES   REMARKS
KNOXVILLE      CLOUDY    39  32  76 W3        30.21S
OAK RIDGE      MOCLDY    39  32  76 CALM      30.22S
GATLINBURG     CLEAR     36  34  93 CALM      30.20S
MORRISTOWN     CLEAR     39  32  75 CALM      30.20S
$$

TNZ083-085-099-180200-
SOUTHEAST TENNESSEE

CITY           SKY/WX    TMP DP  RH WIND       PRES   REMARKS
CHATTANOOGA    MOCLDY    40  33  76 N6        30.23R
$$

SKY/WX REPORTED AS FAIR MEANS FEW OR NO CLOUDS BELOW
12 THOUSAND FEET.



USA.gov is the U.S. government's official web portal to all federal, state and local government web resources and services.